User: anonymous   Login
Location: Summit Observatory
(39.5293°N, 75.7290°W)
Time: 22:48:14
(UTC-05:00)
Language:

Gurwin Techsat 1B - Orbit

View from above orbital plane
View from above orbital plane
View from above satellite
View from above satellite

Ground track
Ground track

The orbit data is extracted from the following two-line orbital elements,

1 25397U 98043D   15023.46752450  .00000045  00000-0  38229-4 0  5504
2 25397 098.5017 338.5961 0001987 063.9502 074.3373 14.23509655859204
Epoch (UTC): 23 January 2015 11:13:14
Eccentricity: 0.0001987
inclination: 98.5017°
perigee height: 812 km
apogee height: 815 km
right ascension of ascending node: 338.5961°
argument of perigee: 63.9502°
revolutions per day: 14.23509655
mean anomaly at epoch: 74.3373°
orbit number at epoch: 85920

The dashed part of the orbit path shows where the satellite is in the earth's shadow,  

DLR